Epoch 2005 Aug. 18.0 TT = JDT 2453600.5
T 2005 Aug. 10.48278 TT MPC
q 4.0288444 (2000.0) P Q
n 0.06029378 Peri. 90.32384 +0.70140710 +0.71164273
a 6.4410163 Node 224.30795 -0.67456725 +0.64469765
e 0.3745017 Incl. 3.27531 -0.23018930 +0.27915867
P 16.35